Location: Fort Wayne
(41.1310°N, 85.1290°W)
Time: 12:33:57
(UTC-04:00)

BREEZE-M DEB (TANK) - Visible Passes

Search period start: 02 July 2015 00:00
Search period end: 12 July 2015 00:00
Orbit: 279 x 13518 km, 49.6° (Epoch: 30 June)

Date Brightness Start Highest point End Pass type
(mag) Time Alt. Az. Time Alt. Az. Time Alt. Az.
02 Jul 5.7 05:45:33 10° NW 06:21:25 51° WSW 06:29:03 10° SSE visible
02 Jul 8.1 20:20:00 10° SSW 22:10:18 82° SE 23:04:21 10° ENE visible
03 Jul 7.0 01:41:27 10° W 03:18:26 76° NNE 03:32:54 10° ESE visible
03 Jul 7.8 21:52:22 10° SW 23:56:10 81° NNW 00:32:33 10° ENE visible
04 Jul 6.0 03:47:41 10° WNW 04:48:41 83° SW 04:58:27 10° SE visible
04 Jul 7.4 23:36:00 10° WSW 01:37:21 74° N 02:00:00 10° E visible
05 Jul 5.8 05:39:27 10° NW 06:14:28 46° WSW 06:22:17 10° S visible
05 Jul 8.1 20:12:38 10° SSW 22:03:56 85° SE 22:58:00 10° ENE visible
06 Jul 6.9 01:37:07 10° W 03:12:23 78° NNE 03:26:33 10° ESE visible
06 Jul 7.8 21:45:48 10° SW 23:50:24 80° NNW 00:26:13 10° ENE visible
07 Jul 6.0 03:42:10 10° WNW 04:42:06 78° SW 04:51:53 10° SE visible
07 Jul 7.4 23:30:36 10° WSW 01:31:31 74° N 01:53:38 10° E visible
08 Jul 5.9 05:33:11 10° NW 06:07:18 41° WSW 06:15:20 10° S visible
08 Jul 8.0 20:05:18 10° SSW 21:57:33 87° SE 22:51:32 10° ENE visible
09 Jul 6.8 01:32:32 10° W 03:06:08 81° NNE 03:20:03 10° ESE visible
09 Jul 7.7 21:39:15 10° SW 23:44:34 78° NNW 00:19:46 10° ENE visible
10 Jul 6.0 03:36:21 10° WNW 04:35:19 73° SW 04:45:08 10° SE visible
10 Jul 7.3 23:25:11 10° WSW 01:25:33 74° N 01:47:08 10° E visible
11 Jul 6.0 05:26:48 10° NW 05:59:57 37° WSW 06:08:10 10° S visible
11 Jul 8.0 19:57:57 10° SSW 21:51:08 90° SE 22:44:58 10° ENE visible
